Weather History for Lowell, ID

Change the Weather History Date:

Sunday, May 26, 2013

  Actual Average Record
Temperature  
Mean Temperature 54 °F -  
Max Temperature 68 °F 69 °F 86 °F (2001)
Min Temperature 41 °F 45 °F 37 °F (2012)
Degree Days  
Heating Degree Days 10    
Growing Degree Days 4 (Base 50)    
Moisture  
Dew Point 44 °F    
Average Humidity 77    
Maximum Humidity 96    
Minimum Humidity 40    
Precipitation  
Precipitation 0.05 in - - ()
Sea Level Pressure  
Sea Level Pressure 29.96 in    
Wind  
Wind Speed 1 mph (SE)    
Max Wind Speed 9 mph    
Max Gust Speed -    
Averages and records for this station are not official NWS values.
T = Trace of Precipitation, MM = Missing Value Source: NWS Daily Summary

Daily Weather History Graph

Daily Weather History Graph

Search for Another Location

Airport:

Trip Planner

Search our weather history database for the weather conditions in past years. The results will help you decide how hot, cold, wet, or windy it might be!

Date:

Astronomy

May. 26, 2013 Rise Set
Actual Time 5:58 AM MDT 9:21 PM MDT
Civil Twilight 5:21 AM MDT 9:57 PM MDT
Nautical Twilight 4:33 AM MDT 10:46 PM MDT
Astronomical Twilight 3:32 AM MDT 11:48 PM MDT
Moon 11:10 PM MDT (5/26) 7:33 AM MDT (5/26)
Length of Visible Light 16h 36m
Length of Day
15h 22m
Waning Gibbous, 96% of the Moon is Illuminated
May 26
Waning Gibbous
May 31
Last Quarter
Jun 8
New
Jun 16
First Quarter
Jun 23
Full

Hourly Weather History & Observations

Time (MDT) Temp. Windchill Dew Point Humidity Pressure Visibility Wind Dir Wind Speed Gust Speed Precip Events Conditions
12:52 AM 46.0 °F - 43.0 °F 89% 30.01 in - Calm Calm - N/A   Unknown
1:52 AM 44.1 °F - 42.1 °F 93% 30.00 in - Calm Calm - N/A   Unknown
2:52 AM 43.0 °F 41.3 °F 41.0 °F 93% 30.01 in - North 3.5 mph - N/A   Unknown
3:52 AM 42.1 °F - 39.9 °F 92% 30.01 in - Calm Calm - N/A   Unknown
4:52 AM 41.0 °F - 39.9 °F 96% 30.01 in - Calm Calm - N/A   Unknown
5:52 AM 41.0 °F - 39.0 °F 93% 30.02 in - Calm Calm - N/A   Unknown
6:52 AM 41.0 °F 39.0 °F 39.0 °F 93% 30.02 in - NNW 3.5 mph - N/A   Unknown
7:52 AM 42.1 °F - 39.9 °F 92% 30.02 in - Calm Calm - N/A   Unknown
8:52 AM 48.0 °F - 41.0 °F 77% 29.99 in - Calm Calm - N/A   Unknown
9:52 AM 52.0 °F - 41.0 °F 66% 29.96 in - Calm Calm - N/A   Unknown
10:52 AM 59.0 °F - 41.0 °F 51% 29.92 in - Calm Calm - N/A   Unknown
11:52 AM 61.0 °F - 42.1 °F 50% 29.89 in - South 6.9 mph - N/A   Unknown
12:52 PM 63.0 °F - 43.0 °F 48% 29.88 in - SSE 8.1 mph - N/A   Unknown
1:52 PM 64.0 °F - 44.1 °F 48% 29.87 in - Variable 4.6 mph - N/A   Unknown
2:52 PM 62.1 °F - 48.9 °F 62% 29.88 in - Calm Calm - N/A   Unknown
3:52 PM 63.0 °F - 48.0 °F 58% 29.86 in - Calm Calm - N/A   Unknown
4:52 PM 68.0 °F - 43.0 °F 40% 29.85 in - Variable 3.5 mph - N/A   Unknown
5:52 PM 62.1 °F - 46.9 °F 58% 29.93 in - SE 9.2 mph - N/A   Unknown
6:52 PM 55.0 °F - 51.1 °F 86% 29.97 in - Calm Calm - 0.02 in   Unknown
7:52 PM 54.0 °F - 52.0 °F 93% 29.98 in - Calm Calm - 0.03 in   Unknown
8:52 PM 53.1 °F - 52.0 °F 96% 29.98 in - Calm Calm - N/A   Unknown
9:52 PM 52.0 °F - 50.0 °F 93% 29.98 in - Calm Calm - N/A   Unknown
10:52 PM 52.0 °F - 50.0 °F 93% 29.99 in - Calm Calm - N/A   Unknown
11:52 PM 52.0 °F - 50.0 °F 93% 29.99 in - Calm Calm - N/A   Unknown